Location: *
(50.8160°S, 176.0219°W)
Time: 02:58:52
(UTC+00:00)

SAR-Lupe-4 - Pass Details

Date: 19 May 2026
Orbit: 480 x 483 km, 98.1° (Epoch: 10 January)

Event Time Altitude Azimuth Distance (km) Brightness Sun altitude
Rises 18:05:08 0° 28° (NNE) 2,551 8.0 -11.6°
Reaches altitude 10° 18:07:13 10° 33° (NNE) 1,679 7.1 -11.2°
Maximum altitude 18:10:43 52° 109° (ESE) 624 4.4 -10.7°
Drops below altitude 10° 18:14:17 10° 186° (S) 1,700 6.1 -10.2°
Sets 18:16:24 0° 190° (S) 2,588 7.0 -9.9°
